Regional Weather Roundup
Issued by NWS

Home | Current Version | Previous Version | Graphics & Text | Print | Product List | Glossary On
Versions: 1 2 3 4 5 6 7 8 9 10 11 12 13 14 15 16 17 18 19 20 21 22 23 24 25 26 27 28 29 30 31 32 33 34 35 36 37 38 39 40 41 42 43 44 45 46 47 48 49 50
000
ASUS45 KPSR 260410
RWRAZ

ARIZONA REGIONAL HOURLY WEATHER ROUNDUP
NATIONAL WEATHER SERVICE PHOENIX AZ
900 PM MST TUE NOV 25 2014

NOTE: FAIR INDICATES FEW OR NO CLOUDS BELOW 12,000 FEET WITH NO
SIGNIFICANT WEATHER AND/OR OBSTRUCTIONS TO VISIBILITY.

AZZ001>003-036-260500-
NORTHWEST ARIZONA

CITY           SKY/WX    TMP DP  RH WIND       PRES   REMARKS
BULLHEAD CITY  CLEAR     55  12  18 CALM      30.34S
KINGMAN        CLEAR     37   7  28 CALM      30.38S
$$

AZZ004>008-015-016-018-260500-
NORTH CENTRAL ARIZONA

CITY           SKY/WX    TMP DP  RH WIND       PRES   REMARKS
GRAND CANYON   PTCLDY    24   5  44 NE5       30.44S WCI  18
PRESCOTT       CLEAR     40  10  29 W7        30.39R
FLAGSTAFF      CLEAR     33  11  39 CALM      30.41R
PAYSON         CLEAR     43  -2  15 CALM      30.38R
PAGE           CLEAR     40  11  30 CALM      30.36R
$$

AZZ009>014-017-260500-
NORTHEAST ARIZONA

CITY           SKY/WX    TMP DP  RH WIND       PRES   REMARKS
WINSLOW        CLEAR     29  -4  24 SW3       30.38R
SAINT JOHNS    CLEAR     32   4  30 SE8       30.38R WCI  25
SHOW LOW       CLEAR     32  -4  21 E3        30.41R
$$

AZZ023-260500-
GREATER PHOENIX AREA

CITY           SKY/WX    TMP DP  RH WIND       PRES   REMARKS
PHOENIX        CLEAR     57  13  17 CALM      30.29R
BUCKEYE          N/A     48   5  17 N7        30.30S
LUKE AFB       CLEAR     48  25  41 W2        30.29R
DEER VALLEY    CLEAR     47   7  19 CALM      30.29S
SCOTTSDALE     CLEAR     53  12  19 CALM      30.32R
MESA-GATEWAY   CLEAR     45   9  23 NE6       30.32S
CHANDLER       CLEAR     50  21  32 CALM      30.30S
$$

AZZ027-028-260500-
SOUTHWEST MARICOPA COUNTY AND PINAL COUNTY

CITY           SKY/WX    TMP DP  RH WIND       PRES   REMARKS
CASA GRANDE    CLEAR     46   3  17 CALM      30.31S
GILA BEND      CLEAR     50   0  12 SE9       30.29S
$$

AZZ503-504-507>509-260500-
SOUTHEAST ARIZONA

CITY           SKY/WX    TMP DP  RH WIND       PRES   REMARKS
TUCSON         CLEAR     48   3  15 SW3       30.34R
DAVIS-MONTHAN  CLEAR     45   5  19 S2        30.32R
NOGALES        CLEAR     40   2  20 E5        30.33R
SIERRA VISTA   CLEAR     43   0  16 SW6       30.34S
DOUGLAS        CLEAR     34   3  27 CALM      30.33R
SAFFORD        CLEAR     39   3  22 E7        30.31S WCI  34
$$

AZZ020-021-025-026-031-260500-
SOUTHWEST ARIZONA

CITY           SKY/WX    TMP DP  RH WIND       PRES   REMARKS
YUMA           CLEAR     58  19  22 W3        30.30F
$$

CAZ031-033-041-043-047-048-061-260500-
SOUTHERN CALIFORNIA

CITY           SKY/WX    TMP DP  RH WIND       PRES   REMARKS
DOWNTOWN L.A.  CLEAR     62  45  53 CALM      30.28R
L.A. AIRPORT   CLEAR     65  51  60 CALM      30.28S
SAN DIEGO      CLEAR     68  27  21 N5        30.29R
BURBANK        CLEAR     60  23  24 CALM      30.29R
ONTARIO        CLEAR     62  23  22 NE3       30.29S
RIVERSIDE      CLEAR     61  19  19 E3        30.30R
PALM SPRINGS   CLEAR     59  18  20 N6        30.34F
EL CENTRO NAS  CLEAR     53  18  25 SW6       30.31S
IMPERIAL       CLEAR     56  23  27 CALM      30.30S
BLYTHE         CLEAR     54  11  18 NW6       30.31S
NEEDLES        CLEAR     56   8  14 W9        30.33R
$$

NVZ020-UTZ003-260500-
SOUTHERN NEVADA-UTAH

CITY           SKY/WX    TMP DP  RH WIND       PRES   REMARKS
LAS VEGAS      CLEAR     53  16  23 S10       30.34R
SALT LAKE CITY MOCLDY    45  30  55 SE9       30.30S
$$

NMZ009-TXZ055-260500-
NEW MEXICO-WEST TEXAS

CITY           SKY/WX    TMP DP  RH WIND       PRES   REMARKS
ALBUQUERQUE    PTCLDY    41   6  23 NW9       30.29R
EL PASO        PTCLDY    47   6  18 SW5       30.27F
$$


........................KEY........................
SKY/WX - SKY CONDITION/WEATHER
TMP    - TEMPERATURE IN FAHRENHEIT
DP     - DEW POINT IN FAHRENHEIT
RH     - RELATIVE HUMIDITY IN PERCENT
WIND   - DIRECTION AND SPEED IN MILES PER HOUR (MPH)
VRB    - VARIABLE WIND DIRECTION
PRES   - MEAN SEA LEVEL PRESSURE IN INCHES OF MERCURY
         F - FALLING PRESSURE   R - RISING PRESSURE
         S - STEADY PRESSURE
VSB    - VISIBILITY IN MILES
HX     - HEAT INDEX IN FAHRENHEIT
WCI    - WIND CHILL INDEX IN FAHRENHEIT
TC     - TEMPERATURE IN CELSIUS WHICH IS ALSO KNOWN AS
         TEMPERATURE IN CENTIGRADE
AFB    - AIR FORCE BASE
         LUKE AFB IS LUKE AIR FORCE BASE
         DAVIS-MONTHAN IS DAVIS-MONTHAN AIR FORCE BASE
NAS    - NAVAL AIR STATION
         EL CENTRO NAS IS EL CENTRO NAVAL AIR STATION
N/A    - NOT AVAILABLE



USA.gov is the U.S. government's official web portal to all federal, state and local government web resources and services.